Weather History for PAWD - July, 2013

Change the Weather History Date:

Monday, July 1, 2013

  Actual Average (WUND) Record (WUND)
Temperature  
Mean Temperature 50 °F -  
Max Temperature 53 °F - - (-1)
Min Temperature 48 °F - - (-1)
Degree Days  
Heating Degree Days 14    
Moisture  
Dew Point 48 °F    
Average Humidity 89    
Maximum Humidity 100    
Minimum Humidity 80    
Precipitation  
Precipitation 2.74 in - - ()
Sea Level Pressure  
Sea Level Pressure 29.74 in    
Wind  
Wind Speed 11 mph (SSW)    
Max Wind Speed 15 mph    
Max Gust Speed 22 mph    
Visibility 8 miles    
Events Rain    
Averages and records for this station are not official NWS values.
T = Trace of Precipitation, MM = Missing Value Source: NWS Daily Summary

Daily Weather History Graph

Daily Weather History Graph

Search for Another Location

Airport or City:

Trip Planner

Search our weather history database for the weather conditions in past years. The results will help you decide how hot, cold, wet, or windy it might be!

Date:

Astronomy

Jul. 01, 2013 Rise Set
Actual Time 4:38 AM AKDT 11:23 PM AKDT
Civil Twilight 2:58 AM AKDT 1:02 AM AKDT
Nautical Twilight Sun does not rise Sun does not rise
Astronomical Twilight Sun does not rise Sun does not rise
Moon 1:25 AM AKDT (7/1) 4:48 PM AKDT (7/1)
Length of Visible Light 22h 04m
Length of Day
18h 44m
Waning Crescent, 34% of the Moon is Illuminated
Jul 1
Waning Crescent
Jul 7
New
Jul 15
First Quarter
Jul 22
Full
Jul 29
Last Quarter

Hourly Weather History & Observations

Time (AKDT) Temp. Dew Point Humidity Pressure Visibility Wind Dir Wind Speed Gust Speed Precip Events Conditions
12:53 AM 52.0 °F 46.9 °F 83% 29.92 in 10.0 mi South 12.7 mph - N/A   Overcast
1:53 AM 51.1 °F 46.9 °F 86% 29.91 in 10.0 mi SSW 12.7 mph - N/A   Overcast
2:19 AM 51.8 °F 48.2 °F 88% 29.90 in 10.0 mi SSW 13.8 mph - N/A   Overcast
2:53 AM 51.1 °F 48.0 °F 89% 29.88 in 10.0 mi SSW 12.7 mph - 0.00 in Rain Light Rain
3:53 AM 50.0 °F 46.9 °F 89% 29.86 in 10.0 mi South 12.7 mph - 0.04 in Rain Light Rain
4:53 AM 51.1 °F 48.0 °F 89% 29.83 in 8.0 mi SSW 13.8 mph - 0.14 in Rain Light Rain
5:53 AM 51.1 °F 48.0 °F 89% 29.81 in 7.0 mi SSW 15.0 mph 21.9 mph 0.13 in Rain Light Rain
6:53 AM 51.1 °F 48.0 °F 89% 29.79 in 10.0 mi SSW 15.0 mph - 0.17 in Rain Light Rain
7:53 AM 51.1 °F 48.0 °F 89% 29.78 in 7.0 mi SSW 11.5 mph - 0.18 in Rain Light Rain
8:53 AM 51.1 °F 48.0 °F 89% 29.76 in 5.0 mi South 10.4 mph - 0.15 in Rain Rain
9:53 AM 51.1 °F 48.9 °F 92% 29.75 in 8.0 mi SSW 12.7 mph - 0.13 in Rain Light Rain
10:53 AM 51.1 °F 48.0 °F 89% 29.74 in 4.0 mi South 10.4 mph 20.7 mph 0.15 in Rain Rain
11:53 AM 51.1 °F 46.9 °F 86% 29.74 in 5.0 mi South 5.8 mph 16.1 mph 0.14 in Rain Light Rain
12:53 PM 51.1 °F 51.1 °F 100% 29.73 in 5.0 mi Variable 6.9 mph - 0.21 in Rain Rain
1:53 PM 51.1 °F 46.9 °F 86% 29.73 in 4.0 mi SSW 12.7 mph - 0.22 in Rain Rain
2:00 PM 51.8 °F 46.4 °F 82% 29.72 in 6.0 mi SSW 11.5 mph 18.4 mph 0.02 in Rain Rain
2:53 PM 52.0 °F 46.9 °F 83% 29.72 in 6.0 mi South 12.7 mph 18.4 mph 0.15 in Rain Light Rain
3:53 PM 52.0 °F 48.0 °F 86% 29.70 in 7.0 mi South 11.5 mph - 0.12 in Rain Light Rain
4:53 PM 53.1 °F 48.9 °F 86% 29.69 in 10.0 mi South 12.7 mph 17.3 mph 0.11 in Rain Light Rain
5:53 PM 52.0 °F 46.0 °F 80% 29.67 in 10.0 mi SSW 11.5 mph - 0.06 in Rain Light Rain
6:53 PM 52.0 °F 48.9 °F 89% 29.65 in 6.0 mi SSW 10.4 mph - 0.06 in Rain Light Rain
7:53 PM 51.1 °F 48.9 °F 92% 29.65 in 8.0 mi SE 4.6 mph - 0.10 in Rain Light Rain
8:53 PM 51.1 °F 48.9 °F 92% 29.64 in 6.0 mi Calm Calm - 0.23 in Rain Light Rain
9:53 PM 50.0 °F 48.9 °F 96% 29.63 in 5.0 mi Calm Calm - 0.12 in Rain Light Rain
10:53 PM 50.0 °F 48.9 °F 96% 29.62 in 10.0 mi Calm Calm - 0.12 in Rain Light Rain
11:42 PM 48.2 °F 48.2 °F 100% 29.62 in 10.0 mi Calm Calm - 0.01 in   Overcast
11:53 PM 48.9 °F 48.0 °F 97% 29.62 in 10.0 mi Calm Calm - 0.01 in   Overcast